スコッティ彗星

377P/Scotti (2020)

English version
Home page
Updated on May 27, 2019

---------------------------------------------------------------------

・ プロフィール

符号 377P/2019 E1
検出日 2019年3月9日
検出光度 20.3等
検出者 E. Schwab (Egelsbach, Germany), D. Abreu (European Space Agency's Optical Ground Station at Tenerife, Spain)

・ 写真集

・ 軌道要素

Epoch 2020 July 10.0 TT = JDT 2459040.5
T 2020 July 11.30192 TT                                 MPCW
q   5.0167158            (2000.0)            P               Q
n   0.05666080     Peri.  354.97025     -0.75359043     +0.64757351
a   6.7134778      Node   226.05927     -0.59750081     -0.74641318
e   0.2527396      Incl.    9.02208     -0.27403327     -0.15334898
P  17.39
From 75 observations 2002 Apr. 5-2019 Mar. 10, mean residual 0".4.

・ 光度変化

        m1 = 9.0 + 5 logΔ + 10.0 log r

---------------------------------------------------------------------

軌道要素はM.P.E.C. 2019-E80に掲載されたものです。
光度グラフはComet for Windowsで作成したものです。

---------------------------------------------------------------------

Copyright(C) Seiichi Yoshida (comet@aerith.net). All rights reserved.